Location: Cles
(46.3667°N, 11.0333°E)
Time: 19:58:22
(UTC+00:00)

Daily predictions for brighter satellites

Satellite Brightness Start Highest point End
(mag) Time Altitude Azimuth Time Altitude Azimuth Time Altitude Azimuth
Geosat 4.2 19:38:59 10° SSE 19:44:00 75° WSW 19:49:04 10° NNW
Cosmos 2322 Rocket 2.6 19:40:53 10° SSW 19:46:28 72° WNW 19:52:08 10° NNE
BREEZE M DEB (TANK) 2.3 19:45:11 10° WNW 19:48:52 65° NNE 19:50:56 10° E
Meteor 1-21 Rocket 4.4 19:43:59 10° S 19:49:51 75° E 19:55:48 10° NNE
Cosmos 2237 4.2 19:46:15 10° SSW 19:51:58 75° ESE 19:57:43 10° NNE
Cosmos 1758 Rocket 3.8 19:50:01 10° S 19:54:22 53° E 19:58:46 10° NNE
Cosmos 1626 Rocket 4.4 19:51:02 10° SSW 19:55:25 57° WNW 19:59:51 10° N
Cosmos 1455 2.2 19:52:02 10° N 19:55:53 78° E 19:59:44 10° SSE
USA 245 3.6 19:55:11 10° SE 19:58:26 48° ENE 20:02:33 10° N
Cosmos 1328 4.1 19:55:56 10° SSE 19:59:44 46° E 20:03:33 10° NNE
ATLAS 2AS CENTAUR R/B 4.3 19:59:41 10° NNW 20:06:28 31° NNE 20:12:47 10° E
COSMOS 2428 3.4 20:04:23 10° SSE 20:09:21 33° ESE 20:14:21 10° NE
Cosmos 1844 3.8 20:04:42 10° NNW 20:10:31 80° ENE 20:16:01 11° SSE
Cosmos 1703 3.2 20:06:45 10° S 20:10:35 70° E 20:14:28 10° NNE
Cosmos 2322 3.8 20:06:26 10° S 20:12:00 56° ESE 20:17:36 10° NE
Cosmos 1745 Rocket 4.2 20:06:03 10° S 20:12:15 81° W 20:18:34 10° N
MetOp-B 4.2 20:07:46 10° SSE 20:13:08 85° WSW 20:18:32 10° NNW
Cosmos 2084 4.4 20:11:10 10° NNW 20:15:26 42° NE 20:19:31 11° ESE
Cosmos 1953 Rocket 3.8 20:13:29 10° SSE 20:17:39 50° E 20:21:51 10° NNE
Cosmos 773 Rocket 4.1 20:13:04 10° S 20:18:14 57° ESE 20:23:26 10° NNE
Cosmos 2237 Rocket 3.8 20:17:54 12° SE 20:20:37 16° E 20:23:58 10° ENE
Cosmos 2219 Rocket 2.5 20:15:51 10° S 20:21:06 44° ESE 20:26:25 10° NE
ERS-1 Rocket 3.4 20:16:48 12° SE 20:21:17 50° ENE 20:26:10 10° N
ATLAS CENTAUR R/B 1.9 20:18:17 10° NNW 20:21:49 40° NE 20:24:46 13° ESE
Cosmos 1818 3.9 20:17:24 10° SW 20:22:49 72° NW 20:28:18 10° NNE
Cosmos 2360 Rocket 2.6 20:18:03 10° SW 20:23:41 69° WNW 20:29:22 10° NNE
USA 215 3.6 20:17:33 10° ENE 20:23:43 42° SE 20:29:50 10° SSW
Cosmos 2333 4.2 20:18:17 10° SSW 20:23:51 67° ESE 20:29:31 10° NNE
SPOT 5 3.3 20:23:12 13° SE 20:27:24 49° ENE 20:32:01 10° N
Landsat 7 3.9 20:26:08 10° S 20:30:53 79° WSW 20:35:41 10° NNW
Atlas Centaur 2 3.9 20:27:53 10° SW 20:31:49 18° S 20:34:39 14° SSE
Cosmos 1825 Rocket 3.8 20:28:15 10° SSW 20:32:41 76° W 20:37:10 10° N
Cosmos 2333 Rocket 2.2 20:29:19 10° S 20:34:54 62° ESE 20:40:34 10° NNE
GEOS 3 Rocket 3.6 20:34:10 10° NE 20:39:35 77° SE 20:44:58 10° SW
Spot 2 Rocket 4.0 20:39:33 10° S 20:44:32 57° W 20:49:35 10° NNW
IGS 5A 4.2 20:42:27 11° S 20:46:23 50° W 20:50:28 10° NNW
Cosmos 1315 Rocket 3.0 20:43:00 10° N 20:47:05 64° ENE 20:49:46 21° SSE
ATLAS 5 CENTAUR R/B 2.8 20:48:28 10° WSW 20:52:30 45° NW 20:57:04 10° NNE
Cosmos 1892 4.1 20:51:28 19° ESE 20:52:41 23° E 20:55:42 10° NE
CARTOSAT-1 3.5 20:49:41 18° SSE 20:52:52 87° WSW 20:57:13 10° NNW
USA 81 4.0 20:48:47 12° S 20:53:44 83° E 20:59:02 10° N
Cosmos 2278 Rocket 2.7 20:49:18 10° NNW 20:54:50 50° ENE 20:58:50 18° SE
USA 267 3.8 20:50:07 10° ESE 20:56:30 57° NNE 21:02:54 10° NW
Cosmos 1844 Rocket 3.7 20:51:44 10° NW 20:56:50 38° WSW 21:01:37 11° S
Cosmos 1709 Rocket 4.4 20:50:59 10° SSW 20:57:14 67° W 21:03:36 10° N
Cosmos 1680 Rocket 4.4 20:59:29 21° SE 21:02:00 31° E 21:06:38 10° NE
Meteor 1-11 4.5 20:58:03 10° SSW 21:03:40 72° WNW 21:09:23 10° N
Cosmos 1408 4.3 21:03:39 17° E 21:04:14 18° E 21:06:41 10° NE
SPOT 1/Viking Rocket 4.3 21:00:43 12° S 21:05:15 49° W 21:10:17 10° NNW
SL-16 R/B 4.0 21:04:44 13° ESE 21:05:46 13° E 21:08:22 10° ENE
Cosmos 2221 2.6 21:08:36 10° N 21:12:59 69° E 21:15:14 27° SSE
Cosmos 2184 Rocket 4.0 21:08:51 18° S 21:13:28 66° E 21:19:44 10° NNE
Resurs 01 Rocket 4.3 21:13:13 10° WSW 21:15:06 12° W 21:16:59 10° WNW
Lacrosse 5 rocket 4.1 21:12:30 10° NW 21:15:27 18° N 21:18:17 10° NE
In-Cosmos 22 Rocket 4.3 21:14:18 23° SSE 21:17:25 54° E 21:22:36 10° NNE
Terra 1.8 21:14:58 23° S 21:17:55 79° WSW 21:22:42 10° NNW
Cosmos 923 Rocket 4.1 21:16:24 21° S 21:19:45 56° ESE 21:24:56 10° NNE
TSX-5 3.7 21:24:51 10° NNW 21:28:23 80° ENE 21:30:04 34° SE
Cosmos 2058 3.0 21:27:37 32° SSE 21:29:20 61° E 21:33:26 10° NNE
NOSS 3-4 (A) 4.0 21:23:37 10° NW 21:30:31 68° NE 21:36:03 20° SE
NOSS 3-4 (C) 4.1 21:23:43 10° NW 21:30:38 67° NE 21:36:11 20° SE
NOSS 3-3 (A) 4.4 21:33:51 10° SW 21:39:42 63° NW 21:46:22 10° NE
NOSS 3-3 (C) 4.4 21:33:56 10° SW 21:39:48 64° NW 21:46:29 10° NE
Cosmos 1825 3.1 21:39:57 31° ESE 21:40:29 32° E 21:43:54 10° NNE
Cosmos 1980 3.6 21:41:50 20° SSW 21:45:52 79° ESE 21:51:33 10° NNE
Cosmos 2369 Rocket 4.4 21:42:17 10° N 21:45:55 17° NE 21:49:33 10° E
JB-3 4.3 21:42:30 10° N 21:46:21 74° WNW 21:48:04 31° SSW
Meteor 2-17 Rocket 4.4 21:43:29 21° SSW 21:47:40 83° W 21:53:46 10° N
Aureole 2 Rocket 3.7 21:46:11 10° N 21:48:30 22° ENE 21:48:50 22° ENE
Cosmos 1076 Rocket 3.4 21:47:32 34° S 21:49:21 89° E 21:53:39 10° N
Nadezhda 3 Rocket 4.0 21:45:27 10° N 21:51:51 86° E 21:55:18 29° S
COSMOS 2455 4.4 21:48:02 10° NNW 21:53:19 30° NE 21:58:34 10° ESE
COSMOS 2428 3.8 21:48:05 10° SW 21:53:28 44° NW 21:58:54 10° NNE
Cosmos 2154 Rocket 3.9 21:49:47 26° S 21:53:31 85° E 21:59:46 10° N
Cosmos 2151 3.4 21:55:43 38° SE 21:56:43 46° E 22:00:49 10° NNE
Cosmos 2341 Rocket 4.3 21:55:16 30° SSE 21:58:07 53° E 22:04:08 10° NNE
ATLAS 2AS CENTAUR R/B 2.8 21:50:53 10° NW 21:58:31 86° NE 22:02:39 27° SE
DELTA 2 R/B (1) 3.9 21:54:07 10° WSW 21:59:16 39° S 22:01:15 29° SE
Thor Agena Rocket 3.5 21:54:24 10° NNE 21:59:29 63° ESE 22:01:29 36° S
Cosmos 2074 Rocket 4.5 21:54:31 15° SSW 21:59:36 56° WNW 22:05:43 10° N
ATLAS CENTAUR R/B 2.9 21:57:45 10° WNW 22:00:25 19° WSW 22:00:56 19° SW
Genesis I 3.0 22:00:58 38° SSW 22:02:23 85° SE 22:06:19 10° NE
BREEZE-M DEB (TANK) 2.0 21:58:29 10° WNW 22:02:39 61° NNE 22:03:23 40° ENE
Cosmos 2237 Rocket 2.2 21:59:40 19° SSW 22:03:54 83° WNW 22:09:40 10° NNE
Cosmos 2219 Rocket 3.8 22:00:10 10° WSW 22:05:11 33° NW 22:10:15 10° NNE
Cosmos 1371 Rocket 4.0 22:01:23 10° NNW 22:06:42 88° ENE 22:08:51 37° SSE
USA 215 3.5 22:00:27 10° NE 22:06:59 70° NNW 22:13:28 10° WSW
Spot 4 3.8 22:06:50 40° SSE 22:08:36 83° ENE 22:13:24 10° NNW
Cosmos 2344 3.5 22:05:02 16° SSW 22:11:09 71° ESE 22:19:06 10° NE
Cosmos 158 Rocket 3.9 22:09:33 26° SSW 22:12:16 74° WNW 22:17:11 10° NNE
SL-8 Rocket 4.3 22:11:02 32° SSE 22:13:36 52° E 22:19:32 10° NNE
Cosmos 1151 Rocket 3.8 22:10:30 10° N 22:14:37 41° ENE 22:15:44 34° ESE
Cosmos 2112 Rocket 4.1 22:12:33 25° SSW 22:15:44 76° WNW 22:21:08 10° NNE
CZ-4C R/B 4.2 22:13:00 10° NNW 22:19:11 34° NNE 22:26:15 10° E
Cosmos 2333 Rocket 4.2 22:14:51 10° WSW 22:19:37 27° NW 22:24:25 10° N
ALOS 2 3.0 22:18:57 39° SE 22:20:14 54° ENE 22:24:32 10° N
Cosmos 1346 Rocket 4.5 22:20:27 20° E 22:20:35 20° E 22:23:29 10° NE
Cosmos 1420 Rocket 4.4 22:16:28 10° NNW 22:21:41 57° ENE 22:23:55 33° SE
Iridium 2 4.2 22:21:17 10° NNW 22:25:01 52° W 22:25:48 43° SW
Cosmos 1892 4.4 22:26:26 18° WSW 22:28:16 27° WNW 22:31:32 10° NNW
EO 1 Del DPAF 3.3 22:25:21 10° N 22:29:06 69° WNW 22:29:55 50° SW
Cosmos 2056 Rocket 3.6 22:25:07 10° NNW 22:30:31 70° WSW 22:32:26 40° S
GP-B 3.2 22:27:40 10° N 22:32:06 64° E 22:33:05 49° SE
Cosmos 1633 4.2 22:32:54 22° E 22:32:54 22° E 22:35:41 10° NE
Nimbus 7 Rocket 4.4 22:29:36 10° NNE 22:35:33 74° ESE 22:37:58 37° S
Cosmos 1606 2.6 22:33:00 10° N 22:36:55 86° E 22:37:25 67° SSE
Cosmos 2278 Rocket 3.5 22:33:53 10° NW 22:38:38 28° WSW 22:40:40 22° SW
Cosmos 1408 4.0 22:37:57 25° WSW 22:39:01 30° WNW 22:42:13 10° NNW
USA 267 3.4 22:36:39 34° SSE 22:39:30 59° SW 22:45:59 10° WNW
Cosmos 2297 3.6 22:35:54 10° NNW 22:41:41 87° WSW 22:43:52 40° SSE
Cosmos 44 2.9 22:40:50 50° SSW 22:41:57 86° ESE 22:46:24 10° NE
Cosmos 1943 Rocket 2.8 22:36:55 10° NNW 22:42:28 50° ENE 22:45:29 25° ESE
MOS 1-B Rocket 4.5 22:34:57 10° NNE 22:42:37 74° WNW 22:46:38 26° SSW
Gbstr 26 Del rocket 3.6 22:44:20 35° E 22:44:20 35° E 22:47:06 10° ENE
SL-16 R/B 2.1 22:46:35 37° SSW 22:48:58 86° ESE 22:54:42 10° NNE
Cosmos 371 Rocket 3.2 22:45:07 10° NNW 22:50:00 86° ENE 22:51:21 49° SSE
IRIDIUM 104 4.2 22:49:57 44° S 22:51:40 89° E 22:56:55 10° N
CREW DRAGON DEMO-1 DEB 3.7 22:53:16 35° WNW 22:54:10 48° NNW 22:57:10 10° ENE
APEX 3.5 22:51:45 10° NNW 22:53:52 43° N 22:53:52 43° N
Lacrosse 5 rocket 3.0 22:51:59 10° NW 22:55:37 31° NNE 22:59:04 10° E
Cosmos 405 3.9 22:52:35 10° N 22:55:56 38° ENE 22:56:11 37° E
Cosmos 1452 Rocket 3.5 22:52:13 10° NNW 22:57:30 76° ENE 22:59:20 41° SE
Cosmos 1515 Rocket 3.6 22:54:55 10° N 22:59:16 69° E 23:00:08 53° SE
IRIDIUM 114 4.3 22:59:06 43° SSW 23:00:50 77° W 23:06:05 10° N
Cosmos 1766 Rocket 4.0 23:01:32 41° SW 23:02:43 54° WNW 23:07:04 10° N
Cosmos 1328 Rocket 3.6 23:01:07 10° NNW 23:05:23 61° W 23:06:06 52° SW
Okean 3 Rocket 4.5 23:07:34 31° WSW 23:09:01 41° WNW 23:13:14 10° N
Meteor 2-3 Rocket 3.7 23:12:54 41° SSW 23:15:00 82° WNW 23:20:45 10° N
Cosmos 1340 2.9 23:15:33 52° WSW 23:15:56 56° WNW 23:19:40 10° N
Cosmos 1825 4.3 23:14:44 16° W 23:16:05 19° WNW 23:18:53 10° NNW
Cosmos 2228 Rocket 3.4 23:15:44 10° N 23:20:18 63° E 23:21:26 46° SE
Cosmos 2218 Rocket 4.3 23:17:43 32° SSW 23:20:41 62° WNW 23:26:57 10° N
Resurs 1-4 Rocket 4.4 23:19:44 10° ENE 23:21:16 11° E 23:22:47 10° ESE
Cosmos 1603 4.1 23:22:36 38° SSE 23:24:06 48° ESE 23:29:35 10° NE
Cosmos 2366 rocket 4.3 23:21:57 32° SW 23:24:54 61° WNW 23:31:13 10° N
Meteor 1-26 Rocket 4.5 23:20:22 10° NNW 23:26:17 63° W 23:28:23 39° SSW
Meteor 2-6 Rocket 4.4 23:21:03 10° N 23:26:29 60° ENE 23:28:38 35° SE
Cosmos 1743 Rocket 3.4 23:29:40 61° S 23:30:24 89° W 23:34:47 10° N
Sich 1 4.2 23:29:53 28° ESE 23:30:44 31° E 23:34:34 10° NNE
Cosmos 2369 Rocket 2.2 23:25:15 10° NNW 23:30:53 80° ENE 23:33:18 36° SE
CZ-4 R/B 4.0 23:26:43 10° NNE 23:31:20 57° E 23:32:25 45° SSE
Cosmos 44 Rocket 3.9 23:32:07 37° SE 23:32:28 38° ESE 23:36:50 10° NE
Cosmos 1821 Rocket 4.0 23:30:57 38° SSE 23:33:21 70° E 23:39:25 10° NNE
Cosmos 304 Rocket 3.7 23:29:01 10° NNW 23:33:52 78° WSW 23:35:01 52° S
YAOGAN 11 4.1 23:33:15 56° SSW 23:33:59 69° WSW 23:38:25 10° NNW
Helios 1A 3.2 23:34:08 50° SW 23:34:34 52° W 23:38:38 10° NNW
COSMOS 2455 2.9 23:33:43 10° NW 23:39:42 64° WSW 23:41:47 40° S
Cosmos 1656 Rocket 4.3 23:35:42 10° NNW 23:40:59 50° ENE 23:44:30 20° SE
ATLAS 2AS CENTAUR R/B 4.0 23:43:09 10° WNW 23:48:29 22° WSW 23:50:03 20° SW
Cosmos 1812 3.1 23:46:56 10° N 23:50:46 56° E 23:51:25 48° ESE
CRYOSAT 2 4.3 23:47:30 10° N 23:52:24 90° ESE 23:53:46 48° S
Cosmos 1782 3.4 23:49:06 10° NNW 23:52:49 40° W 23:53:04 40° WSW
USA 32 4.3 23:51:42 39° SSE 23:53:33 62° E 23:58:45 10° NNE
CZ-2D R/B 3.9 23:50:45 10° NE 23:54:48 22° E 23:57:20 16° SE
